Time,TemperatureF,DewpointF,PressureIn,WindDirection,WindDirectionDegrees,WindSpeedMPH,WindSpeedGustMPH,Humidity,HourlyPrecipIn,Conditions,Clouds,dailyrainin,SoftwareType,DateUTC
2013-01-29 00:00:00,41.3,31.2,30.17,NE,52,2.0,3.0,67,0.00,,---,0.06,VWS V14.01,2013-01-29 08:00:00,
2013-01-29 00:02:00,41.2,31.1,30.17,NE,51,1.0,3.0,67,0.00,,---,0.00,VWS V14.01,2013-01-29 08:02:00,
2013-01-29 00:07:00,41.1,30.6,30.17,NE,51,2.0,5.0,66,0.00,,---,0.00,VWS V14.01,2013-01-29 08:07:00,
2013-01-29 00:12:00,40.8,30.3,30.17,ENE,69,3.0,5.0,66,0.00,,---,0.00,VWS V14.01,2013-01-29 08:12:00,
2013-01-29 00:15:00,40.7,30.2,30.17,ENE,65,2.0,5.0,66,0.00,,---,0.00,VWS V14.01,2013-01-29 08:15:00,
2013-01-29 00:17:00,40.7,30.6,30.17,ENE,61,2.0,4.0,67,0.00,,---,0.00,VWS V14.01,2013-01-29 08:17:00,
2013-01-29 00:22:00,40.6,30.5,30.18,ENE,61,0.0,5.0,67,0.00,,---,0.00,VWS V14.01,2013-01-29 08:22:00,
2013-01-29 00:27:00,40.5,30.0,30.17,ENE,60,0.0,5.0,66,0.00,,---,0.00,VWS V14.01,2013-01-29 08:27:00,
2013-01-29 00:30:00,40.4,30.3,30.18,ENE,61,0.0,5.0,67,0.00,,---,0.00,VWS V14.01,2013-01-29 08:30:00,
2013-01-29 00:32:00,40.3,30.2,30.18,ENE,60,0.0,0.0,67,0.00,,---,0.00,VWS V14.01,2013-01-29 08:32:00,
2013-01-29 00:37:00,40.2,30.5,30.17,ENE,61,0.0,0.0,68,0.00,,---,0.00,VWS V14.01,2013-01-29 08:37:00,
2013-01-29 00:42:00,40.1,30.8,30.17,ENE,61,0.0,0.0,69,0.00,,---,0.00,VWS V14.01,2013-01-29 08:42:00,
2013-01-29 00:45:00,40.0,30.7,30.17,ENE,60,0.0,0.0,69,0.00,,---,0.00,VWS V14.01,2013-01-29 08:45:00,
2013-01-29 00:47:00,40.0,30.7,30.17,ENE,61,0.0,0.0,69,0.00,,---,0.00,VWS V14.01,2013-01-29 08:47:00,
2013-01-29 00:53:00,39.9,30.6,30.17,ENE,61,2.0,3.0,69,0.00,,---,0.00,VWS V14.01,2013-01-29 08:53:00,
2013-01-29 00:57:00,39.9,30.9,30.17,ENE,60,2.0,4.0,70,0.00,,---,0.00,VWS V14.01,2013-01-29 08:57:00,
2013-01-29 01:00:00,39.9,30.9,30.17,ENE,61,4.0,4.0,70,0.00,,---,0.00,VWS V14.01,2013-01-29 09:00:00,
2013-01-29 01:03:00,40.0,31.0,30.17,NE,49,5.0,5.0,70,0.00,,---,0.00,VWS V14.01,2013-01-29 09:03:00,
2013-01-29 01:08:00,40.1,30.8,30.18,NE,48,2.0,5.0,69,0.00,,---,0.00,VWS V14.01,2013-01-29 09:08:00,
2013-01-29 01:13:00,40.2,30.9,30.17,NE,49,3.0,5.0,69,0.00,,---,0.00,VWS V14.01,2013-01-29 09:13:00,
2013-01-29 01:15:00,40.2,30.9,30.18,NE,49,4.0,5.0,69,0.00,,---,0.00,VWS V14.01,2013-01-29 09:15:00,
2013-01-29 01:18:00,40.3,31.0,30.17,NE,49,3.0,5.0,69,0.00,,---,0.00,VWS V14.01,2013-01-29 09:18:00,
2013-01-29 01:23:00,40.4,31.0,30.17,ENE,59,3.0,6.0,69,0.00,,---,0.00,VWS V14.01,2013-01-29 09:23:00,
2013-01-29 01:28:00,40.4,31.4,30.17,ENE,64,4.0,6.0,70,0.00,,---,0.00,VWS V14.01,2013-01-29 09:28:00,
2013-01-29 01:30:00,40.4,31.4,30.17,NE,54,3.0,6.0,70,0.00,,---,0.00,VWS V14.01,2013-01-29 09:30:00,
2013-01-29 01:33:00,40.4,31.4,30.17,NE,53,3.0,5.0,70,0.00,,---,0.00,VWS V14.01,2013-01-29 09:33:00,
2013-01-29 01:38:00,40.4,31.4,30.17,NE,53,2.0,5.0,70,0.00,,---,0.00,VWS V14.01,2013-01-29 09:38:00,
2013-01-29 01:43:00,40.3,31.3,30.17,NE,53,3.0,5.0,70,0.00,,---,0.00,VWS V14.01,2013-01-29 09:43:00,
2013-01-29 01:45:00,40.2,31.2,30.17,NE,54,0.0,5.0,70,0.00,,---,0.00,VWS V14.01,2013-01-29 09:45:00,
2013-01-29 01:48:00,40.2,31.2,30.17,NE,53,3.0,4.0,70,0.00,,---,0.00,VWS V14.01,2013-01-29 09:48:00,
2013-01-29 01:53:00,40.1,31.1,30.17,NE,53,2.0,5.0,70,0.00,,---,0.00,VWS V14.01,2013-01-29 09:53:00,
2013-01-29 01:58:00,40.0,31.0,30.18,NE,51,2.0,5.0,70,0.00,,---,0.00,VWS V14.01,2013-01-29 09:58:00,
2013-01-29 02:00:00,40.0,31.0,30.18,NE,51,0.0,5.0,70,0.00,,---,0.00,VWS V14.01,2013-01-29 10:00:00,
2013-01-29 02:03:00,40.0,31.0,30.18,NE,49,4.0,5.0,70,0.00,,---,0.00,VWS V14.01,2013-01-29 10:03:00,
2013-01-29 02:08:00,40.0,31.0,30.17,NE,53,4.0,6.0,70,0.00,,---,0.00,VWS V14.01,2013-01-29 10:08:00,
2013-01-29 02:13:00,40.0,31.0,30.17,NE,54,0.0,7.0,70,0.00,,---,0.00,VWS V14.01,2013-01-29 10:13:00,
2013-01-29 02:15:00,40.0,31.0,30.17,NE,53,3.0,7.0,70,0.00,,---,0.00,VWS V14.01,2013-01-29 10:15:00,
2013-01-29 02:18:00,40.0,31.0,30.17,NE,54,1.0,5.0,70,0.00,,---,0.00,VWS V14.01,2013-01-29 10:18:00,
2013-01-29 02:23:00,40.0,31.0,30.17,NE,54,2.0,5.0,70,0.00,,---,0.00,VWS V14.01,2013-01-29 10:23:00,
2013-01-29 02:28:00,40.0,31.0,30.17,NE,53,3.0,5.0,70,0.00,,---,0.00,VWS V14.01,2013-01-29 10:28:00,
2013-01-29 02:30:00,40.0,31.0,30.17,NE,54,3.0,5.0,70,0.00,,---,0.00,VWS V14.01,2013-01-29 10:30:00,
2013-01-29 02:33:00,39.9,31.3,30.17,NE,55,0.0,3.0,71,0.00,,---,0.00,VWS V14.01,2013-01-29 10:33:00,
2013-01-29 02:38:00,39.8,30.8,30.17,NE,54,3.0,3.0,70,0.00,,---,0.00,VWS V14.01,2013-01-29 10:38:00,
2013-01-29 02:43:00,39.7,31.1,30.17,NE,54,2.0,3.0,71,0.00,,---,0.00,VWS V14.01,2013-01-29 10:43:00,
2013-01-29 02:45:00,39.7,31.1,30.17,NE,54,0.0,4.0,71,0.00,,---,0.00,VWS V14.01,2013-01-29 10:45:00,
2013-01-29 02:48:00,39.6,31.0,30.17,NE,53,2.0,3.0,71,0.00,,---,0.00,VWS V14.01,2013-01-29 10:48:00,
2013-01-29 02:53:00,39.6,31.0,30.17,NE,55,4.0,4.0,71,0.00,,---,0.00,VWS V14.01,2013-01-29 10:53:00,
2013-01-29 02:58:00,39.6,31.0,30.17,NE,53,5.0,5.0,71,0.00,,---,0.00,VWS V14.01,2013-01-29 10:58:00,
2013-01-29 03:00:00,39.6,31.0,30.17,NE,53,3.0,5.0,71,0.00,,---,0.00,VWS V14.01,2013-01-29 11:00:00,
2013-01-29 03:03:00,39.6,30.6,30.18,NE,52,3.0,5.0,70,0.00,,---,0.00,VWS V14.01,2013-01-29 11:03:00,
2013-01-29 03:08:00,39.6,30.6,30.17,NE,53,3.0,5.0,70,0.00,,---,0.00,VWS V14.01,2013-01-29 11:08:00,
2013-01-29 03:13:00,39.5,30.2,30.17,NE,53,0.0,5.0,69,0.00,,---,0.00,VWS V14.01,2013-01-29 11:13:00,
2013-01-29 03:15:00,39.5,30.2,30.17,NE,53,2.0,5.0,69,0.00,,---,0.00,VWS V14.01,2013-01-29 11:15:00,
2013-01-29 03:18:00,39.5,30.5,30.18,NE,52,0.0,3.0,70,0.00,,---,0.00,VWS V14.01,2013-01-29 11:18:00,
2013-01-29 03:23:00,39.4,30.4,30.17,NE,53,0.0,4.0,70,0.00,,---,0.00,VWS V14.01,2013-01-29 11:23:00,
2013-01-29 03:28:00,39.4,30.4,30.18,NE,53,1.0,5.0,70,0.00,,---,0.00,VWS V14.01,2013-01-29 11:28:00,
2013-01-29 03:30:00,39.4,30.4,30.18,NE,53,4.0,5.0,70,0.00,,---,0.00,VWS V14.01,2013-01-29 11:30:00,
2013-01-29 03:33:00,39.4,30.4,30.18,NE,53,1.0,4.0,70,0.00,,---,0.00,VWS V14.01,2013-01-29 11:33:00,
2013-01-29 03:38:00,39.5,30.5,30.18,NE,53,3.0,4.0,70,0.00,,---,0.00,VWS V14.01,2013-01-29 11:38:00,
2013-01-29 03:43:00,39.5,30.5,30.18,NE,52,3.0,4.0,70,0.00,,---,0.00,VWS V14.01,2013-01-29 11:43:00,
2013-01-29 03:45:00,39.4,30.4,30.18,NE,52,1.0,4.0,70,0.00,,---,0.00,VWS V14.01,2013-01-29 11:45:00,
2013-01-29 03:48:00,39.3,30.4,30.18,NE,53,2.0,3.0,70,0.00,,---,0.00,VWS V14.01,2013-01-29 11:48:00,
2013-01-29 03:53:00,39.2,30.2,30.17,NE,53,2.0,4.0,70,0.00,,---,0.00,VWS V14.01,2013-01-29 11:53:00,
2013-01-29 03:58:00,39.1,30.2,30.18,NE,53,0.0,4.0,70,0.01,,---,0.01,VWS V14.01,2013-01-29 11:58:00,
2013-01-29 04:00:00,39.1,30.2,30.18,NE,53,4.0,4.0,70,0.01,,---,0.01,VWS V14.01,2013-01-29 12:00:00,
2013-01-29 04:03:00,39.0,30.4,30.18,NE,53,2.0,4.0,71,0.01,,---,0.01,VWS V14.01,2013-01-29 12:03:00,
2013-01-29 04:08:00,39.0,30.4,30.18,NE,53,4.0,4.0,71,0.01,,---,0.01,VWS V14.01,2013-01-29 12:08:00,
2013-01-29 04:13:00,39.0,30.4,30.18,NE,52,4.0,4.0,71,0.01,,---,0.01,VWS V14.01,2013-01-29 12:13:00,
2013-01-29 04:15:00,39.0,30.8,30.18,NE,51,2.0,4.0,72,0.01,,---,0.01,VWS V14.01,2013-01-29 12:15:00,
2013-01-29 04:18:00,39.0,30.4,30.19,NE,51,4.0,5.0,71,0.01,,---,0.01,VWS V14.01,2013-01-29 12:18:00,
2013-01-29 04:23:00,39.0,30.4,30.18,NE,52,0.0,5.0,71,0.01,,---,0.01,VWS V14.01,2013-01-29 12:23:00,
2013-01-29 04:28:00,39.0,30.8,30.18,NE,51,3.0,5.0,72,0.01,,---,0.01,VWS V14.01,2013-01-29 12:28:00,
2013-01-29 04:30:00,38.9,30.3,30.19,NE,51,3.0,5.0,71,0.01,,---,0.01,VWS V14.01,2013-01-29 12:30:00,
2013-01-29 04:33:00,39.0,30.4,30.18,NE,51,4.0,4.0,71,0.01,,---,0.01,VWS V14.01,2013-01-29 12:33:00,
2013-01-29 04:38:00,39.0,30.4,30.18,NE,50,3.0,6.0,71,0.01,,---,0.01,VWS V14.01,2013-01-29 12:38:00,
2013-01-29 04:43:00,39.0,30.4,30.18,NE,48,3.0,6.0,71,0.01,,---,0.01,VWS V14.01,2013-01-29 12:43:00,
2013-01-29 04:45:00,39.0,30.4,30.18,ENE,63,5.0,6.0,71,0.01,,---,0.01,VWS V14.01,2013-01-29 12:45:00,
2013-01-29 04:48:00,39.0,30.4,30.18,ENE,65,0.0,6.0,71,0.01,,---,0.01,VWS V14.01,2013-01-29 12:48:00,
2013-01-29 04:53:00,39.0,30.4,30.18,ENE,65,3.0,6.0,71,0.01,,---,0.01,VWS V14.01,2013-01-29 12:53:00,
2013-01-29 04:58:00,38.9,30.7,30.19,ENE,65,2.0,6.0,72,0.01,,---,0.01,VWS V14.01,2013-01-29 12:58:00,
2013-01-29 05:00:00,38.9,30.7,30.19,NE,41,6.0,6.0,72,0.01,,---,0.01,VWS V14.01,2013-01-29 13:00:00,
2013-01-29 05:03:00,38.9,30.3,30.19,ENE,59,6.0,6.0,71,0.00,,---,0.01,VWS V14.01,2013-01-29 13:03:00,
2013-01-29 05:08:00,39.0,30.4,30.19,NE,55,4.0,6.0,71,0.00,,---,0.01,VWS V14.01,2013-01-29 13:08:00,
2013-01-29 05:13:00,39.0,30.4,30.19,NE,49,3.0,6.0,71,0.00,,---,0.01,VWS V14.01,2013-01-29 13:13:00,
2013-01-29 05:15:00,39.0,30.4,30.19,NE,55,3.0,6.0,71,0.00,,---,0.01,VWS V14.01,2013-01-29 13:15:00,
2013-01-29 05:18:00,39.1,30.5,30.19,NE,55,0.0,5.0,71,0.00,,---,0.01,VWS V14.01,2013-01-29 13:18:00,
2013-01-29 05:23:00,39.1,30.2,30.19,NE,56,4.0,5.0,70,0.00,,---,0.01,VWS V14.01,2013-01-29 13:23:00,
2013-01-29 05:28:00,39.1,30.2,30.19,NE,55,3.0,5.0,70,0.00,,---,0.01,VWS V14.01,2013-01-29 13:28:00,
2013-01-29 05:30:00,39.1,30.2,30.19,ENE,59,4.0,5.0,70,0.00,,---,0.01,VWS V14.01,2013-01-29 13:30:00,
2013-01-29 05:33:00,39.2,30.2,30.19,ENE,59,3.0,4.0,70,0.00,,---,0.01,VWS V14.01,2013-01-29 13:33:00,
2013-01-29 05:38:00,39.2,30.2,30.19,ENE,59,0.0,4.0,70,0.00,,---,0.01,VWS V14.01,2013-01-29 13:38:00,
2013-01-29 05:43:00,39.2,30.2,30.19,NE,56,3.0,5.0,70,0.00,,---,0.01,VWS V14.01,2013-01-29 13:43:00,
2013-01-29 05:45:00,39.2,30.2,30.19,NE,48,2.0,5.0,70,0.00,,---,0.01,VWS V14.01,2013-01-29 13:45:00,
2013-01-29 05:48:00,39.2,30.2,30.20,NE,41,4.0,6.0,70,0.00,,---,0.01,VWS V14.01,2013-01-29 13:48:00,
2013-01-29 05:53:00,39.3,30.0,30.20,NE,53,3.0,6.0,69,0.00,,---,0.01,VWS V14.01,2013-01-29 13:53:00,
2013-01-29 05:58:00,39.4,30.1,30.20,ENE,57,4.0,7.0,69,0.00,,---,0.01,VWS V14.01,2013-01-29 13:58:00,
2013-01-29 06:00:00,39.4,30.1,30.20,NE,47,2.0,7.0,69,0.00,,---,0.01,VWS V14.01,2013-01-29 14:00:00,
2013-01-29 06:03:00,39.5,30.2,30.20,NE,48,2.0,5.0,69,0.00,,---,0.01,VWS V14.01,2013-01-29 14:03:00,
2013-01-29 06:08:00,39.5,30.2,30.20,NE,48,3.0,5.0,69,0.00,,---,0.01,VWS V14.01,2013-01-29 14:08:00,
2013-01-29 06:13:00,39.5,30.5,30.20,NE,51,5.0,5.0,70,0.00,,---,0.01,VWS V14.01,2013-01-29 14:13:00,
2013-01-29 06:15:00,39.5,30.5,30.20,NE,53,5.0,5.0,70,0.00,,---,0.01,VWS V14.01,2013-01-29 14:15:00,
2013-01-29 06:18:00,39.4,30.4,30.20,ENE,61,2.0,6.0,70,0.00,,---,0.01,VWS V14.01,2013-01-29 14:18:00,
2013-01-29 06:23:00,39.4,30.4,30.20,ENE,62,3.0,6.0,70,0.00,,---,0.01,VWS V14.01,2013-01-29 14:23:00,
2013-01-29 06:28:00,39.4,30.4,30.21,ENE,61,2.0,6.0,70,0.00,,---,0.01,VWS V14.01,2013-01-29 14:28:00,
2013-01-29 06:30:00,39.4,30.8,30.21,ENE,61,3.0,6.0,71,0.00,,---,0.01,VWS V14.01,2013-01-29 14:30:00,
2013-01-29 06:33:00,39.3,30.7,30.20,ENE,62,4.0,4.0,71,0.00,,---,0.01,VWS V14.01,2013-01-29 14:33:00,
2013-01-29 06:38:00,39.3,30.7,30.21,ENE,62,2.0,5.0,71,0.00,,---,0.01,VWS V14.01,2013-01-29 14:38:00,
2013-01-29 06:43:00,39.2,30.6,30.21,ENE,62,2.0,5.0,71,0.00,,---,0.01,VWS V14.01,2013-01-29 14:43:00,
2013-01-29 06:45:00,39.2,30.6,30.20,ENE,62,1.0,5.0,71,0.00,,---,0.01,VWS V14.01,2013-01-29 14:45:00,
2013-01-29 06:48:00,39.2,30.6,30.21,ENE,61,3.0,5.0,71,0.00,,---,0.01,VWS V14.01,2013-01-29 14:48:00,
2013-01-29 06:53:00,39.2,30.6,30.21,ENE,63,2.0,5.0,71,0.00,,---,0.01,VWS V14.01,2013-01-29 14:53:00,
2013-01-29 06:58:00,39.2,30.6,30.21,ENE,61,2.0,5.0,71,0.00,,---,0.01,VWS V14.01,2013-01-29 14:58:00,
2013-01-29 07:00:00,39.2,30.6,30.21,ENE,63,3.0,5.0,71,0.00,,---,0.01,VWS V14.01,2013-01-29 15:00:00,
2013-01-29 07:03:00,39.2,30.6,30.21,ENE,63,0.0,4.0,71,0.00,,---,0.01,VWS V14.01,2013-01-29 15:03:00,
2013-01-29 07:08:00,39.2,30.6,30.22,ENE,63,2.0,4.0,71,0.00,,---,0.01,VWS V14.01,2013-01-29 15:08:00,
2013-01-29 07:13:00,39.3,30.7,30.22,ENE,61,3.0,4.0,71,0.00,,---,0.01,VWS V14.01,2013-01-29 15:13:00,
2013-01-29 07:15:00,39.3,30.7,30.22,NE,53,4.0,4.0,71,0.00,,---,0.01,VWS V14.01,2013-01-29 15:15:00,
2013-01-29 07:18:00,39.4,30.8,30.22,NE,54,4.0,5.0,71,0.00,,---,0.01,VWS V14.01,2013-01-29 15:18:00,
2013-01-29 07:23:00,39.7,31.1,30.22,NE,46,3.0,6.0,71,0.00,,---,0.01,VWS V14.01,2013-01-29 15:23:00,
2013-01-29 07:28:00,40.0,31.4,30.22,NE,46,5.0,7.0,71,0.00,,---,0.01,VWS V14.01,2013-01-29 15:28:00,
2013-01-29 07:30:00,40.1,31.5,30.22,NE,49,2.0,7.0,71,0.00,,---,0.01,VWS V14.01,2013-01-29 15:30:00,
2013-01-29 07:33:00,40.2,31.6,30.22,NE,50,4.0,5.0,71,0.00,,---,0.01,VWS V14.01,2013-01-29 15:33:00,
2013-01-29 07:38:00,40.5,31.5,30.22,NE,49,3.0,5.0,70,0.00,,---,0.01,VWS V14.01,2013-01-29 15:38:00,
2013-01-29 07:43:00,40.8,31.8,30.22,NE,50,1.0,5.0,70,0.00,,---,0.01,VWS V14.01,2013-01-29 15:43:00,
2013-01-29 07:45:00,41.0,32.0,30.22,NE,49,0.0,5.0,70,0.00,,---,0.01,VWS V14.01,2013-01-29 15:45:00,
2013-01-29 07:48:00,41.4,32.4,30.23,NE,49,4.0,4.0,70,0.00,,---,0.01,VWS V14.01,2013-01-29 15:48:00,
2013-01-29 07:53:00,42.2,32.8,30.23,ENE,59,0.0,4.0,69,0.00,,---,0.01,VWS V14.01,2013-01-29 15:53:00,
2013-01-29 07:58:00,43.3,33.1,30.23,ENE,59,4.0,4.0,67,0.00,,---,0.01,VWS V14.01,2013-01-29 15:58:00,
2013-01-29 08:00:00,43.8,33.6,30.23,ENE,58,0.0,4.0,67,0.00,,---,0.01,VWS V14.01,2013-01-29 16:00:00,
2013-01-29 08:03:00,44.4,33.4,30.22,ENE,58,0.0,3.0,65,0.00,,---,0.01,VWS V14.01,2013-01-29 16:03:00,
2013-01-29 08:08:00,45.5,34.0,30.23,ENE,59,0.0,3.0,64,0.00,,---,0.01,VWS V14.01,2013-01-29 16:08:00,
2013-01-29 08:13:00,46.6,34.3,30.23,ENE,59,1.0,3.0,62,0.00,,---,0.01,VWS V14.01,2013-01-29 16:13:00,
2013-01-29 08:15:00,47.0,34.7,30.23,ENE,58,0.0,3.0,62,0.00,,---,0.01,VWS V14.01,2013-01-29 16:15:00,
2013-01-29 08:18:00,47.6,34.8,30.23,ENE,59,0.0,1.0,61,0.00,,---,0.01,VWS V14.01,2013-01-29 16:18:00,
2013-01-29 08:23:00,48.8,35.1,30.22,ENE,59,0.0,3.0,59,0.00,,---,0.01,VWS V14.01,2013-01-29 16:23:00,
2013-01-29 08:28:00,49.9,36.2,30.22,ENE,66,0.0,4.0,59,0.00,,---,0.01,VWS V14.01,2013-01-29 16:28:00,
2013-01-29 08:30:00,50.2,36.0,30.22,ENE,72,2.0,4.0,58,0.00,,---,0.01,VWS V14.01,2013-01-29 16:30:00,
2013-01-29 08:33:00,50.5,36.3,30.22,ENE,71,0.0,3.0,58,0.00,,---,0.01,VWS V14.01,2013-01-29 16:33:00,
2013-01-29 08:38:00,50.9,36.7,30.22,East,98,1.0,4.0,58,0.00,,---,0.01,VWS V14.01,2013-01-29 16:38:00,
2013-01-29 08:43:00,51.5,36.8,30.22,SSE,167,2.0,6.0,57,0.00,,---,0.01,VWS V14.01,2013-01-29 16:43:00,
2013-01-29 08:45:00,51.5,36.8,30.22,SSE,159,0.0,6.0,57,0.00,,---,0.01,VWS V14.01,2013-01-29 16:45:00,
2013-01-29 08:48:00,51.8,37.5,30.22,SSE,157,0.0,2.0,58,0.00,,---,0.01,VWS V14.01,2013-01-29 16:48:00,
2013-01-29 08:53:00,52.2,37.9,30.22,South,171,0.0,3.0,58,0.00,,---,0.01,VWS V14.01,2013-01-29 16:53:00,
2013-01-29 08:58:00,52.8,38.0,30.22,East,87,0.0,4.0,57,0.00,,---,0.01,VWS V14.01,2013-01-29 16:58:00,
2013-01-29 09:00:00,53.0,37.7,30.22,East,88,0.0,4.0,56,0.00,,---,0.01,VWS V14.01,2013-01-29 17:00:00,
2013-01-29 09:03:00,53.4,38.1,30.22,East,86,0.0,4.0,56,0.01,,---,0.02,VWS V14.01,2013-01-29 17:03:00,
2013-01-29 09:08:00,53.9,37.2,30.22,East,87,0.0,4.0,53,0.01,,---,0.02,VWS V14.01,2013-01-29 17:08:00,
2013-01-29 09:13:00,54.4,38.1,30.22,SSE,161,0.0,4.0,54,0.01,,---,0.02,VWS V14.01,2013-01-29 17:13:00,
2013-01-29 09:15:00,54.5,38.7,30.22,South,171,1.0,4.0,55,0.01,,---,0.02,VWS V14.01,2013-01-29 17:15:00,
2013-01-29 09:18:00,54.6,38.8,30.22,South,171,0.0,1.0,55,0.01,,---,0.02,VWS V14.01,2013-01-29 17:18:00,
2013-01-29 09:23:00,54.6,37.8,30.21,South,171,0.0,1.0,53,0.01,,---,0.02,VWS V14.01,2013-01-29 17:23:00,
2013-01-29 09:28:00,54.6,36.8,30.21,South,171,0.0,1.0,51,0.01,,---,0.02,VWS V14.01,2013-01-29 17:28:00,
2013-01-29 09:30:00,54.7,37.4,30.21,South,171,0.0,1.0,52,0.01,,---,0.02,VWS V14.01,2013-01-29 17:30:00,
2013-01-29 09:33:00,54.9,37.6,30.22,South,178,0.0,3.0,52,0.01,,---,0.02,VWS V14.01,2013-01-29 17:33:00,
2013-01-29 09:39:00,54.8,37.5,30.21,South,176,0.0,3.0,52,0.01,,---,0.02,VWS V14.01,2013-01-29 17:39:00,
2013-01-29 09:44:00,54.6,36.8,30.21,South,175,0.0,3.0,51,0.01,,---,0.02,VWS V14.01,2013-01-29 17:44:00,
2013-01-29 09:45:00,54.6,36.8,30.21,South,175,1.0,3.0,51,0.01,,---,0.02,VWS V14.01,2013-01-29 17:45:00,
2013-01-29 09:49:00,54.6,38.3,30.22,South,175,0.0,1.0,54,0.01,,---,0.02,VWS V14.01,2013-01-29 17:49:00,
2013-01-29 09:54:00,54.9,38.6,30.22,SSW,198,1.0,3.0,54,0.01,,---,0.02,VWS V14.01,2013-01-29 17:54:00,
2013-01-29 09:59:00,54.9,38.6,30.22,SW,236,3.0,6.0,54,0.01,,---,0.02,VWS V14.01,2013-01-29 17:59:00,
2013-01-29 10:00:00,54.8,37.5,30.22,WSW,238,2.0,6.0,52,0.01,,---,0.02,VWS V14.01,2013-01-29 18:00:00,
2013-01-29 10:04:00,54.6,38.3,30.22,SW,232,0.0,3.0,54,0.01,,---,0.02,VWS V14.01,2013-01-29 18:04:00,
2013-01-29 10:09:00,54.4,37.2,30.22,SW,234,2.0,4.0,52,0.01,,---,0.02,VWS V14.01,2013-01-29 18:09:00,
2013-01-29 10:14:00,54.3,37.1,30.22,WSW,241,4.0,5.0,52,0.01,,---,0.02,VWS V14.01,2013-01-29 18:14:00,
2013-01-29 10:15:00,54.2,37.9,30.22,SW,229,2.0,5.0,54,0.01,,---,0.02,VWS V14.01,2013-01-29 18:15:00,
2013-01-29 10:19:00,54.3,39.0,30.22,SW,225,5.0,5.0,56,0.00,,---,0.02,VWS V14.01,2013-01-29 18:19:00,
2013-01-29 10:24:00,54.4,39.0,30.22,SSW,213,2.0,5.0,56,0.00,,---,0.02,VWS V14.01,2013-01-29 18:24:00,
2013-01-29 10:29:00,54.6,39.2,30.22,SSW,213,2.0,5.0,56,0.00,,---,0.02,VWS V14.01,2013-01-29 18:29:00,
2013-01-29 10:30:00,54.7,37.9,30.22,SW,232,2.0,5.0,53,0.00,,---,0.02,VWS V14.01,2013-01-29 18:30:00,
2013-01-29 10:34:00,54.5,36.3,30.22,SW,223,4.0,4.0,50,0.00,,---,0.02,VWS V14.01,2013-01-29 18:34:00,
2013-01-29 10:39:00,54.4,38.1,30.22,West,266,0.0,5.0,54,0.00,,---,0.02,VWS V14.01,2013-01-29 18:39:00,
2013-01-29 10:44:00,54.6,38.3,30.22,SW,236,0.0,5.0,54,0.00,,---,0.02,VWS V14.01,2013-01-29 18:44:00,
2013-01-29 10:45:00,54.8,37.5,30.22,SW,236,0.0,5.0,52,0.00,,---,0.02,VWS V14.01,2013-01-29 18:45:00,
2013-01-29 10:49:00,55.3,37.0,30.22,SW,236,0.0,0.0,50,0.00,,---,0.02,VWS V14.01,2013-01-29 18:49:00,
2013-01-29 10:54:00,56.1,37.2,30.22,WSW,249,0.0,4.0,49,0.00,,---,0.02,VWS V14.01,2013-01-29 18:54:00,
2013-01-29 10:59:00,56.5,39.1,30.21,WSW,254,0.0,4.0,52,0.00,,---,0.02,VWS V14.01,2013-01-29 18:59:00,
2013-01-29 11:00:00,56.8,37.9,30.21,WSW,254,0.0,4.0,49,0.00,,---,0.02,VWS V14.01,2013-01-29 19:00:00,
2013-01-29 11:04:00,57.1,37.6,30.22,WSW,253,0.0,2.0,48,0.00,,---,0.02,VWS V14.01,2013-01-29 19:04:00,
2013-01-29 11:09:00,57.4,36.8,30.21,WSW,253,2.0,2.0,46,0.00,,---,0.02,VWS V14.01,2013-01-29 19:09:00,
2013-01-29 11:14:00,57.3,37.8,30.21,WSW,252,3.0,3.0,48,0.00,,---,0.02,VWS V14.01,2013-01-29 19:14:00,
2013-01-29 11:15:00,57.4,38.9,30.21,WSW,250,2.0,5.0,50,0.00,,---,0.02,VWS V14.01,2013-01-29 19:15:00,
2013-01-29 11:19:00,57.2,36.1,30.21,West,260,0.0,2.0,45,0.00,,---,0.02,VWS V14.01,2013-01-29 19:19:00,
2013-01-29 11:24:00,57.5,38.5,30.21,SW,222,5.0,5.0,49,0.00,,---,0.02,VWS V14.01,2013-01-29 19:24:00,
2013-01-29 11:29:00,57.7,38.7,30.20,WSW,253,1.0,7.0,49,0.00,,---,0.02,VWS V14.01,2013-01-29 19:29:00,
2013-01-29 11:30:00,57.7,38.7,30.20,SSW,194,0.0,7.0,49,0.00,,---,0.02,VWS V14.01,2013-01-29 19:30:00,
2013-01-29 11:34:00,58.0,37.4,30.20,SE,130,2.0,2.0,46,0.00,,---,0.02,VWS V14.01,2013-01-29 19:34:00,
2013-01-29 11:39:00,58.5,38.4,30.19,South,179,0.0,4.0,47,0.00,,---,0.02,VWS V14.01,2013-01-29 19:39:00,
2013-01-29 11:44:00,59.0,40.9,30.19,WSW,241,1.0,5.0,51,0.00,,---,0.02,VWS V14.01,2013-01-29 19:44:00,
2013-01-29 11:45:00,59.0,39.9,30.19,SW,227,3.0,5.0,49,0.00,,---,0.02,VWS V14.01,2013-01-29 19:45:00,
2013-01-29 11:49:00,59.0,39.9,30.18,SW,227,1.0,4.0,49,0.00,,---,0.02,VWS V14.01,2013-01-29 19:49:00,
2013-01-29 11:54:00,58.6,39.5,30.18,WSW,244,0.0,5.0,49,0.00,,---,0.02,VWS V14.01,2013-01-29 19:54:00,
2013-01-29 11:57:00,58.5,39.9,30.18,WSW,242,2.0,5.0,50,0.00,,---,0.02,VWS V14.01,2013-01-29 19:57:00,
2013-01-29 12:00:00,58.3,38.7,30.18,WSW,244,0.0,5.0,48,0.00,,---,0.02,VWS V14.01,2013-01-29 20:00:00,
2013-01-29 12:02:00,58.3,38.7,30.18,SW,234,0.0,3.0,48,0.00,,---,0.02,VWS V14.01,2013-01-29 20:02:00,
2013-01-29 12:07:00,57.7,38.2,30.18,West,281,0.0,3.0,48,0.00,,---,0.02,VWS V14.01,2013-01-29 20:07:00,
2013-01-29 12:12:00,57.6,39.1,30.17,SSW,196,2.0,5.0,50,0.00,,---,0.02,VWS V14.01,2013-01-29 20:12:00,
2013-01-29 12:15:00,58.0,40.0,30.17,SW,227,5.0,5.0,51,0.00,,---,0.02,VWS V14.01,2013-01-29 20:15:00,
2013-01-29 12:17:00,58.2,40.7,30.17,SW,228,1.0,6.0,52,0.00,,---,0.02,VWS V14.01,2013-01-29 20:17:00,
2013-01-29 12:22:00,58.7,40.6,30.17,SW,223,5.0,6.0,51,0.00,,---,0.02,VWS V14.01,2013-01-29 20:22:00,
2013-01-29 12:27:00,58.7,40.1,30.17,West,260,0.0,6.0,50,0.00,,---,0.02,VWS V14.01,2013-01-29 20:27:00,
2013-01-29 12:30:00,58.6,40.0,30.17,West,261,1.0,6.0,50,0.00,,---,0.02,VWS V14.01,2013-01-29 20:30:00,
2013-01-29 12:32:00,58.6,39.5,30.17,West,261,1.0,3.0,49,0.00,,---,0.02,VWS V14.01,2013-01-29 20:32:00,
2013-01-29 12:37:00,58.9,40.3,30.17,SW,219,1.0,6.0,50,0.00,,---,0.02,VWS V14.01,2013-01-29 20:37:00,
2013-01-29 12:42:00,59.0,40.9,30.16,SW,225,2.0,7.0,51,0.00,,---,0.02,VWS V14.01,2013-01-29 20:42:00,
2013-01-29 12:45:00,59.2,39.5,30.16,WSW,246,2.0,7.0,48,0.00,,---,0.02,VWS V14.01,2013-01-29 20:45:00,
2013-01-29 12:47:00,59.1,39.5,30.16,WSW,252,0.0,2.0,48,0.00,,---,0.02,VWS V14.01,2013-01-29 20:47:00,
2013-01-29 12:52:00,59.0,39.9,30.16,West,266,0.0,5.0,49,0.00,,---,0.02,VWS V14.01,2013-01-29 20:52:00,
2013-01-29 12:57:00,59.0,41.4,30.15,SW,232,4.0,5.0,52,0.00,,---,0.02,VWS V14.01,2013-01-29 20:57:00,
2013-01-29 13:00:00,59.6,40.4,30.15,SSW,198,2.0,5.0,49,0.00,,---,0.02,VWS V14.01,2013-01-29 21:00:00,
2013-01-29 13:02:00,59.8,40.6,30.15,SSE,148,2.0,2.0,49,0.00,,---,0.02,VWS V14.01,2013-01-29 21:02:00,
2013-01-29 13:07:00,60.3,38.3,30.15,SE,140,0.0,3.0,44,0.00,,---,0.02,VWS V14.01,2013-01-29 21:07:00,
2013-01-29 13:12:00,60.4,37.8,30.14,South,171,0.0,4.0,43,0.00,,---,0.02,VWS V14.01,2013-01-29 21:12:00,
2013-01-29 13:15:00,60.2,40.5,30.14,SW,230,4.0,5.0,48,0.00,,---,0.02,VWS V14.01,2013-01-29 21:15:00,
2013-01-29 13:17:00,60.2,39.9,30.14,South,188,3.0,4.0,47,0.00,,---,0.02,VWS V14.01,2013-01-29 21:17:00,
2013-01-29 13:22:00,60.2,41.0,30.14,SW,223,6.0,9.0,49,0.00,,---,0.02,VWS V14.01,2013-01-29 21:22:00,
2013-01-29 13:27:00,60.0,40.8,30.14,South,188,0.0,9.0,49,0.00,,---,0.02,VWS V14.01,2013-01-29 21:27:00,
2013-01-29 13:30:00,60.1,41.4,30.14,WSW,257,4.0,9.0,50,0.00,,---,0.02,VWS V14.01,2013-01-29 21:30:00,
2013-01-29 13:32:00,60.1,40.9,30.14,WSW,237,3.0,5.0,49,0.00,,---,0.02,VWS V14.01,2013-01-29 21:32:00,
2013-01-29 13:37:00,60.0,40.8,30.14,SW,234,4.0,9.0,49,0.00,,---,0.02,VWS V14.01,2013-01-29 21:37:00,
2013-01-29 13:42:00,59.9,42.7,30.14,SSW,213,5.0,10.0,53,0.00,,---,0.02,VWS V14.01,2013-01-29 21:42:00,
2013-01-29 13:45:00,59.6,43.0,30.14,WSW,244,4.0,10.0,54,0.01,,---,0.03,VWS V14.01,2013-01-29 21:45:00,
2013-01-29 13:47:00,59.4,42.8,30.14,SW,223,3.0,7.0,54,0.01,,---,0.03,VWS V14.01,2013-01-29 21:47:00,
2013-01-29 13:52:00,58.8,42.7,30.14,WSW,248,5.0,10.0,55,0.01,,---,0.03,VWS V14.01,2013-01-29 21:52:00,
2013-01-29 13:57:00,58.3,42.7,30.14,WSW,246,3.0,10.0,56,0.01,,---,0.03,VWS V14.01,2013-01-29 21:57:00,
2013-01-29 14:00:00,58.1,42.0,30.15,SW,227,7.0,10.0,55,0.01,,---,0.03,VWS V14.01,2013-01-29 22:00:00,
2013-01-29 14:02:00,58.0,42.9,30.14,WSW,237,7.0,11.0,57,0.01,,---,0.03,VWS V14.01,2013-01-29 22:02:00,
2013-01-29 14:07:00,57.8,42.2,30.15,WSW,238,5.0,11.0,56,0.01,,---,0.03,VWS V14.01,2013-01-29 22:07:00,
2013-01-29 14:12:00,57.5,41.9,30.15,SW,219,4.0,11.0,56,0.01,,---,0.03,VWS V14.01,2013-01-29 22:12:00,
2013-01-29 14:15:00,57.4,42.3,30.15,SW,216,3.0,11.0,57,0.01,,---,0.03,VWS V14.01,2013-01-29 22:15:00,
2013-01-29 14:17:00,57.3,41.8,30.15,WSW,239,3.0,9.0,56,0.01,,---,0.03,VWS V14.01,2013-01-29 22:17:00,
2013-01-29 14:22:00,57.2,41.7,30.15,SW,236,5.0,9.0,56,0.01,,---,0.03,VWS V14.01,2013-01-29 22:22:00,
2013-01-29 14:27:00,57.0,41.5,30.15,SW,219,4.0,10.0,56,0.01,,---,0.03,VWS V14.01,2013-01-29 22:27:00,
2013-01-29 14:30:00,57.0,41.9,30.15,SSW,206,0.0,10.0,57,0.01,,---,0.03,VWS V14.01,2013-01-29 22:30:00,
2013-01-29 14:32:00,57.2,42.6,30.15,SW,234,8.0,8.0,58,0.01,,---,0.03,VWS V14.01,2013-01-29 22:32:00,
2013-01-29 14:37:00,57.5,41.9,30.15,SW,236,3.0,8.0,56,0.01,,---,0.03,VWS V14.01,2013-01-29 22:37:00,
2013-01-29 14:42:00,57.7,42.6,30.15,South,182,0.0,8.0,57,0.01,,---,0.03,VWS V14.01,2013-01-29 22:42:00,
2013-01-29 14:45:00,58.0,42.9,30.15,SW,227,4.0,8.0,57,0.01,,---,0.03,VWS V14.01,2013-01-29 22:45:00,
2013-01-29 14:47:00,58.2,42.1,30.15,SSW,207,2.0,6.0,55,0.00,,---,0.03,VWS V14.01,2013-01-29 22:47:00,
2013-01-29 14:52:00,58.2,41.7,30.15,West,269,0.0,6.0,54,0.00,,---,0.03,VWS V14.01,2013-01-29 22:52:00,
2013-01-29 14:57:00,58.2,42.1,30.15,SW,235,5.0,7.0,55,0.00,,---,0.03,VWS V14.01,2013-01-29 22:57:00,
2013-01-29 15:00:00,58.2,42.1,30.15,WSW,244,3.0,7.0,55,0.00,,---,0.03,VWS V14.01,2013-01-29 23:00:00,
2013-01-29 15:02:00,58.2,42.1,30.15,WSW,241,4.0,5.0,55,0.00,,---,0.03,VWS V14.01,2013-01-29 23:02:00,
2013-01-29 15:07:00,58.0,41.5,30.15,SSW,205,2.0,7.0,54,0.00,,---,0.03,VWS V14.01,2013-01-29 23:07:00,
2013-01-29 15:12:00,57.7,41.7,30.15,SSW,209,0.0,7.0,55,0.00,,---,0.03,VWS V14.01,2013-01-29 23:12:00,
2013-01-29 15:15:00,57.5,41.0,30.15,WNW,284,3.0,7.0,54,0.00,,---,0.03,VWS V14.01,2013-01-29 23:15:00,
2013-01-29 15:17:00,57.1,40.6,30.15,WSW,256,3.0,5.0,54,0.00,,---,0.03,VWS V14.01,2013-01-29 23:17:00,
2013-01-29 15:22:00,56.2,39.8,30.15,NW,306,0.0,5.0,54,0.00,,---,0.03,VWS V14.01,2013-01-29 23:22:00,
2013-01-29 15:27:00,55.9,41.3,30.16,SSW,206,3.0,5.0,58,0.00,,---,0.03,VWS V14.01,2013-01-29 23:27:00,
2013-01-29 15:30:00,55.8,40.3,30.16,SSW,207,3.0,6.0,56,0.00,,---,0.03,VWS V14.01,2013-01-29 23:30:00,
2013-01-29 15:32:00,55.8,40.4,30.16,WSW,248,1.0,6.0,56,0.00,,---,0.03,VWS V14.01,2013-01-29 23:32:00,
2013-01-29 15:37:00,55.6,40.6,30.16,SW,232,5.0,6.0,57,0.00,,---,0.03,VWS V14.01,2013-01-29 23:37:00,
2013-01-29 15:42:00,55.4,40.4,30.16,SW,226,5.0,6.0,57,0.00,,---,0.03,VWS V14.01,2013-01-29 23:42:00,
2013-01-29 15:45:00,55.3,39.9,30.16,WSW,250,3.0,6.0,56,0.00,,---,0.03,VWS V14.01,2013-01-29 23:45:00,
2013-01-29 15:47:00,55.3,40.3,30.16,SSW,198,1.0,3.0,57,0.00,,---,0.03,VWS V14.01,2013-01-29 23:47:00,
2013-01-29 15:52:00,55.2,40.2,30.16,SW,236,5.0,7.0,57,0.00,,---,0.03,VWS V14.01,2013-01-29 23:52:00,
2013-01-29 15:57:00,55.0,39.2,30.16,WSW,237,3.0,7.0,55,0.00,,---,0.03,VWS V14.01,2013-01-29 23:57:00,
2013-01-29 16:00:00,54.9,39.5,30.16,SW,217,1.0,7.0,56,0.00,,---,0.03,VWS V14.01,2013-01-30 00:00:00,
2013-01-29 16:02:00,54.8,39.0,30.16,SSW,198,0.0,5.0,55,0.00,,---,0.03,VWS V14.01,2013-01-30 00:02:00,
2013-01-29 16:07:00,54.6,39.2,30.16,SW,217,0.0,5.0,56,0.00,,---,0.03,VWS V14.01,2013-01-30 00:07:00,
2013-01-29 16:12:00,54.5,39.6,30.16,SW,225,0.0,5.0,57,0.00,,---,0.03,VWS V14.01,2013-01-30 00:12:00,
2013-01-29 16:15:00,54.4,39.0,30.16,SW,215,0.0,5.0,56,0.00,,---,0.03,VWS V14.01,2013-01-30 00:15:00,
2013-01-29 16:17:00,54.3,39.4,30.17,SW,215,2.0,3.0,57,0.00,,---,0.03,VWS V14.01,2013-01-30 00:17:00,
2013-01-29 16:22:00,54.1,39.2,30.17,SSW,200,3.0,6.0,57,0.01,,---,0.04,VWS V14.01,2013-01-30 00:22:00,
2013-01-29 16:27:00,53.9,39.5,30.17,SW,223,4.0,6.0,58,0.01,,---,0.04,VWS V14.01,2013-01-30 00:27:00,
2013-01-29 16:30:00,53.7,39.7,30.17,SW,227,1.0,6.0,59,0.01,,---,0.04,VWS V14.01,2013-01-30 00:30:00,
2013-01-29 16:32:00,53.6,39.2,30.17,SW,227,0.0,2.0,58,0.01,,---,0.04,VWS V14.01,2013-01-30 00:32:00,
2013-01-29 16:37:00,53.4,39.0,30.17,SW,214,3.0,3.0,58,0.01,,---,0.04,VWS V14.01,2013-01-30 00:37:00,
2013-01-29 16:42:00,53.2,39.3,30.18,SW,214,1.0,3.0,59,0.01,,---,0.04,VWS V14.01,2013-01-30 00:42:00,
2013-01-29 16:45:00,53.0,39.1,30.18,SW,217,0.0,3.0,59,0.01,,---,0.04,VWS V14.01,2013-01-30 00:45:00,
2013-01-29 16:47:00,52.9,39.0,30.18,SSW,213,0.0,2.0,59,0.01,,---,0.04,VWS V14.01,2013-01-30 00:47:00,
2013-01-29 16:52:00,52.6,38.7,30.18,SW,219,1.0,4.0,59,0.01,,---,0.04,VWS V14.01,2013-01-30 00:52:00,
2013-01-29 16:57:00,52.3,38.8,30.18,SW,220,0.0,4.0,60,0.01,,---,0.04,VWS V14.01,2013-01-30 00:57:00,
2013-01-29 17:00:00,52.1,38.7,30.18,SW,220,0.0,4.0,60,0.01,,---,0.04,VWS V14.01,2013-01-30 01:00:00,
2013-01-29 17:02:00,52.0,39.0,30.18,South,184,3.0,3.0,61,0.01,,---,0.04,VWS V14.01,2013-01-30 01:02:00,
2013-01-29 17:07:00,51.7,38.7,30.18,South,182,0.0,3.0,61,0.01,,---,0.04,VWS V14.01,2013-01-30 01:07:00,
2013-01-29 17:12:00,51.5,38.5,30.18,South,180,0.0,5.0,61,0.01,,---,0.04,VWS V14.01,2013-01-30 01:12:00,
2013-01-29 17:15:00,51.4,38.4,30.18,South,179,1.0,5.0,61,0.01,,---,0.04,VWS V14.01,2013-01-30 01:15:00,
2013-01-29 17:17:00,51.3,38.3,30.18,SSE,157,0.0,4.0,61,0.01,,---,0.04,VWS V14.01,2013-01-30 01:17:00,
2013-01-29 17:22:00,51.1,39.0,30.18,SSE,168,2.0,4.0,63,0.01,,---,0.04,VWS V14.01,2013-01-30 01:22:00,
2013-01-29 17:27:00,50.8,39.1,30.19,South,183,3.0,4.0,64,0.01,,---,0.04,VWS V14.01,2013-01-30 01:27:00,
2013-01-29 17:30:00,50.7,39.0,30.19,South,184,0.0,4.0,64,0.01,,---,0.04,VWS V14.01,2013-01-30 01:30:00,
2013-01-29 17:32:00,50.6,39.3,30.19,South,183,1.0,2.0,65,0.00,,---,0.04,VWS V14.01,2013-01-30 01:32:00,
2013-01-29 17:37:00,50.4,39.1,30.19,South,183,1.0,2.0,65,0.00,,---,0.04,VWS V14.01,2013-01-30 01:37:00,
2013-01-29 17:42:00,50.2,39.3,30.19,South,184,0.0,3.0,66,0.00,,---,0.04,VWS V14.01,2013-01-30 01:42:00,
2013-01-29 17:45:00,50.0,39.5,30.19,South,184,0.0,3.0,67,0.00,,---,0.04,VWS V14.01,2013-01-30 01:45:00,
2013-01-29 17:47:00,50.0,39.5,30.19,South,184,0.0,0.0,67,0.00,,---,0.04,VWS V14.01,2013-01-30 01:47:00,
2013-01-29 17:52:00,49.8,39.3,30.19,South,184,0.0,0.0,67,0.00,,---,0.04,VWS V14.01,2013-01-30 01:52:00,
2013-01-29 17:57:00,49.6,39.5,30.19,South,184,0.0,0.0,68,0.00,,---,0.04,VWS V14.01,2013-01-30 01:57:00,
2013-01-29 18:00:00,49.5,39.4,30.19,South,184,0.0,0.0,68,0.00,,---,0.04,VWS V14.01,2013-01-30 02:00:00,
2013-01-29 18:02:00,49.4,39.3,30.19,South,183,0.0,0.0,68,0.00,,---,0.04,VWS V14.01,2013-01-30 02:02:00,
2013-01-29 18:07:00,49.2,39.5,30.19,South,184,0.0,0.0,69,0.00,,---,0.04,VWS V14.01,2013-01-30 02:07:00,
2013-01-29 18:12:00,49.0,39.3,30.19,South,183,0.0,0.0,69,0.00,,---,0.04,VWS V14.01,2013-01-30 02:12:00,
2013-01-29 18:15:00,48.8,39.1,30.19,South,184,0.0,2.0,69,0.00,,---,0.04,VWS V14.01,2013-01-30 02:15:00,
2013-01-29 18:17:00,48.8,39.5,30.20,SE,134,0.0,2.0,70,0.00,,---,0.04,VWS V14.01,2013-01-30 02:17:00,
2013-01-29 18:22:00,48.6,39.3,30.20,East,92,0.0,3.0,70,0.00,,---,0.04,VWS V14.01,2013-01-30 02:22:00,
2013-01-29 18:27:00,48.3,38.6,30.20,ENE,66,0.0,4.0,69,0.00,,---,0.04,VWS V14.01,2013-01-30 02:27:00,
2013-01-29 18:30:00,48.2,38.9,30.21,ENE,65,1.0,4.0,70,0.00,,---,0.04,VWS V14.01,2013-01-30 02:30:00,
2013-01-29 18:32:00,48.1,38.8,30.20,ENE,59,0.0,4.0,70,0.00,,---,0.04,VWS V14.01,2013-01-30 02:32:00,
2013-01-29 18:37:00,47.9,38.6,30.20,ENE,59,0.0,5.0,70,0.00,,---,0.04,VWS V14.01,2013-01-30 02:37:00,
2013-01-29 18:42:00,47.8,38.5,30.20,ENE,57,0.0,5.0,70,0.00,,---,0.04,VWS V14.01,2013-01-30 02:42:00,
2013-01-29 18:45:00,47.6,38.3,30.20,ENE,57,0.0,5.0,70,0.00,,---,0.04,VWS V14.01,2013-01-30 02:45:00,
2013-01-29 18:47:00,47.6,38.3,30.20,ENE,57,3.0,4.0,70,0.00,,---,0.04,VWS V14.01,2013-01-30 02:47:00,
2013-01-29 18:52:00,47.4,38.5,30.20,NE,55,3.0,5.0,71,0.00,,---,0.04,VWS V14.01,2013-01-30 02:52:00,
2013-01-29 18:57:00,47.3,38.4,30.20,NE,55,0.0,5.0,71,0.00,,---,0.04,VWS V14.01,2013-01-30 02:57:00,
2013-01-29 19:00:00,47.2,38.3,30.20,NE,55,0.0,5.0,71,0.00,,---,0.04,VWS V14.01,2013-01-30 03:00:00,
2013-01-29 19:02:00,47.1,38.2,30.20,NE,55,1.0,1.0,71,0.00,,---,0.04,VWS V14.01,2013-01-30 03:02:00,
2013-01-29 19:07:00,46.9,38.0,30.20,NE,55,0.0,3.0,71,0.00,,---,0.04,VWS V14.01,2013-01-30 03:07:00,
2013-01-29 19:12:00,46.7,38.2,30.20,NE,55,2.0,5.0,72,0.00,,---,0.04,VWS V14.01,2013-01-30 03:12:00,
2013-01-29 19:15:00,46.7,38.2,30.20,NE,55,2.0,5.0,72,0.00,,---,0.04,VWS V14.01,2013-01-30 03:15:00,
2013-01-29 19:17:00,46.6,38.1,30.20,NE,55,0.0,4.0,72,0.00,,---,0.04,VWS V14.01,2013-01-30 03:17:00,
2013-01-29 19:22:00,46.5,38.0,30.20,NE,51,3.0,5.0,72,0.00,,---,0.04,VWS V14.01,2013-01-30 03:22:00,
2013-01-29 19:27:00,46.5,38.0,30.20,NE,55,3.0,5.0,72,0.00,,---,0.04,VWS V14.01,2013-01-30 03:27:00,
2013-01-29 19:30:00,46.4,37.9,30.20,NE,55,3.0,5.0,72,0.00,,---,0.04,VWS V14.01,2013-01-30 03:30:00,
2013-01-29 19:32:00,46.4,37.9,30.20,NE,55,4.0,6.0,72,0.00,,---,0.04,VWS V14.01,2013-01-30 03:32:00,
2013-01-29 19:37:00,46.3,38.1,30.20,NE,48,2.0,6.0,73,0.00,,---,0.04,VWS V14.01,2013-01-30 03:37:00,
2013-01-29 19:42:00,46.2,38.0,30.20,NE,44,3.0,7.0,73,0.00,,---,0.04,VWS V14.01,2013-01-30 03:42:00,
2013-01-29 19:45:00,46.1,37.9,30.20,NE,45,3.0,7.0,73,0.00,,---,0.04,VWS V14.01,2013-01-30 03:45:00,
2013-01-29 19:47:00,46.1,37.9,30.20,NE,41,3.0,5.0,73,0.00,,---,0.04,VWS V14.01,2013-01-30 03:47:00,
2013-01-29 19:52:00,46.0,37.8,30.20,NE,52,3.0,6.0,73,0.00,,---,0.04,VWS V14.01,2013-01-30 03:52:00,
2013-01-29 19:57:00,46.0,37.8,30.20,ENE,57,2.0,7.0,73,0.00,,---,0.04,VWS V14.01,2013-01-30 03:57:00,
2013-01-29 20:00:00,45.9,37.8,30.20,ENE,60,4.0,7.0,73,0.00,,---,0.04,VWS V14.01,2013-01-30 04:00:00,
2013-01-29 20:02:00,45.8,38.0,30.19,NE,46,4.0,6.0,74,0.00,,---,0.04,VWS V14.01,2013-01-30 04:02:00,
2013-01-29 20:07:00,45.8,38.0,30.19,NE,38,5.0,9.0,74,0.00,,---,0.04,VWS V14.01,2013-01-30 04:07:00,
2013-01-29 20:12:00,45.6,37.8,30.19,NE,51,5.0,9.0,74,0.00,,---,0.04,VWS V14.01,2013-01-30 04:12:00,
2013-01-29 20:15:00,45.6,37.8,30.20,NE,50,4.0,9.0,74,0.00,,---,0.04,VWS V14.01,2013-01-30 04:15:00,
2013-01-29 20:17:00,45.6,37.8,30.20,NE,49,4.0,6.0,74,0.00,,---,0.04,VWS V14.01,2013-01-30 04:17:00,
2013-01-29 20:22:00,45.5,38.0,30.19,NE,44,4.0,6.0,75,0.00,,---,0.04,VWS V14.01,2013-01-30 04:22:00,
2013-01-29 20:27:00,45.5,38.0,30.19,NE,54,3.0,6.0,75,0.00,,---,0.04,VWS V14.01,2013-01-30 04:27:00,
2013-01-29 20:30:00,45.5,38.0,30.19,NE,53,2.0,6.0,75,0.00,,---,0.04,VWS V14.01,2013-01-30 04:30:00,
2013-01-29 20:32:00,45.5,37.7,30.20,NE,52,2.0,5.0,74,0.00,,---,0.04,VWS V14.01,2013-01-30 04:32:00,
2013-01-29 20:37:00,45.5,37.7,30.20,NE,48,4.0,7.0,74,0.00,,---,0.04,VWS V14.01,2013-01-30 04:37:00,
2013-01-29 20:42:00,45.5,37.7,30.20,NE,50,5.0,7.0,74,0.00,,---,0.04,VWS V14.01,2013-01-30 04:42:00,
2013-01-29 20:45:00,45.5,37.7,30.19,NE,50,3.0,7.0,74,0.00,,---,0.04,VWS V14.01,2013-01-30 04:45:00,
2013-01-29 20:47:00,45.5,38.0,30.19,NE,50,4.0,4.0,75,0.00,,---,0.04,VWS V14.01,2013-01-30 04:47:00,
2013-01-29 20:52:00,45.4,38.0,30.19,NNE,30,3.0,5.0,75,0.00,,---,0.04,VWS V14.01,2013-01-30 04:52:00,
2013-01-29 20:57:00,45.3,37.9,30.20,NE,48,4.0,5.0,75,0.00,,---,0.04,VWS V14.01,2013-01-30 04:57:00,
2013-01-29 21:00:00,45.2,37.8,30.19,NE,50,4.0,5.0,75,0.00,,---,0.04,VWS V14.01,2013-01-30 05:00:00,
2013-01-29 21:01:00,45.2,37.8,30.19,NE,49,2.0,2.0,75,0.00,,---,0.04,VWS V14.01,2013-01-30 05:01:00,
2013-01-29 21:03:00,45.2,37.8,30.19,NE,49,3.0,5.0,75,0.00,,---,0.04,VWS V14.01,2013-01-30 05:03:00,
2013-01-29 21:08:00,45.0,37.6,30.19,NE,50,3.0,5.0,75,0.00,,---,0.04,VWS V14.01,2013-01-30 05:08:00,
2013-01-29 21:13:00,45.0,37.6,30.19,NE,48,3.0,5.0,75,0.00,,---,0.04,VWS V14.01,2013-01-30 05:13:00,
2013-01-29 21:15:00,45.0,37.6,30.19,NE,40,4.0,5.0,75,0.00,,---,0.04,VWS V14.01,2013-01-30 05:15:00,
2013-01-29 21:18:00,45.0,37.6,30.19,NE,44,3.0,5.0,75,0.00,,---,0.04,VWS V14.01,2013-01-30 05:18:00,
2013-01-29 21:23:00,45.0,37.6,30.19,NE,51,2.0,5.0,75,0.00,,---,0.04,VWS V14.01,2013-01-30 05:23:00,
2013-01-29 21:28:00,45.0,37.6,30.19,NE,51,3.0,5.0,75,0.00,,---,0.04,VWS V14.01,2013-01-30 05:28:00,
2013-01-29 21:30:00,45.0,37.6,30.19,NE,51,3.0,5.0,75,0.00,,---,0.04,VWS V14.01,2013-01-30 05:30:00,
2013-01-29 21:33:00,45.0,37.6,30.19,NE,52,4.0,4.0,75,0.00,,---,0.04,VWS V14.01,2013-01-30 05:33:00,
2013-01-29 21:38:00,44.9,37.8,30.19,NE,52,1.0,5.0,76,0.00,,---,0.04,VWS V14.01,2013-01-30 05:38:00,
2013-01-29 21:43:00,44.7,37.6,30.19,NE,51,3.0,5.0,76,0.00,,---,0.04,VWS V14.01,2013-01-30 05:43:00,
2013-01-29 21:45:00,44.7,37.6,30.19,NE,52,4.0,5.0,76,0.00,,---,0.04,VWS V14.01,2013-01-30 05:45:00,
2013-01-29 21:48:00,44.7,37.6,30.19,NE,45,0.0,4.0,76,0.00,,---,0.04,VWS V14.01,2013-01-30 05:48:00,
2013-01-29 21:53:00,44.7,37.6,30.19,NE,46,2.0,4.0,76,0.00,,---,0.04,VWS V14.01,2013-01-30 05:53:00,
2013-01-29 21:58:00,44.7,37.6,30.19,NE,49,0.0,4.0,76,0.00,,---,0.04,VWS V14.01,2013-01-30 05:58:00,
2013-01-29 22:00:00,44.7,37.6,30.18,NE,48,2.0,4.0,76,0.00,,---,0.04,VWS V14.01,2013-01-30 06:00:00,
2013-01-29 22:03:00,44.7,37.6,30.19,NE,48,5.0,5.0,76,0.00,,---,0.04,VWS V14.01,2013-01-30 06:03:00,
2013-01-29 22:08:00,44.7,37.9,30.19,NE,55,3.0,5.0,77,0.00,,---,0.04,VWS V14.01,2013-01-30 06:08:00,
2013-01-29 22:13:00,44.7,37.9,30.19,NE,55,4.0,5.0,77,0.00,,---,0.04,VWS V14.01,2013-01-30 06:13:00,
2013-01-29 22:15:00,44.6,37.8,30.19,NE,54,4.0,5.0,77,0.00,,---,0.04,VWS V14.01,2013-01-30 06:15:00,
2013-01-29 22:18:00,44.6,37.5,30.19,NE,56,4.0,5.0,76,0.01,,---,0.05,VWS V14.01,2013-01-30 06:18:00,
2013-01-29 22:23:00,44.7,37.9,30.19,NE,46,4.0,5.0,77,0.01,,---,0.05,VWS V14.01,2013-01-30 06:23:00,
2013-01-29 22:28:00,44.7,37.9,30.19,ENE,60,6.0,7.0,77,0.01,,---,0.05,VWS V14.01,2013-01-30 06:28:00,
2013-01-29 22:30:00,44.8,38.0,30.19,NE,51,1.0,7.0,77,0.01,,---,0.05,VWS V14.01,2013-01-30 06:30:00,
2013-01-29 22:33:00,44.8,37.7,30.19,NE,48,4.0,6.0,76,0.01,,---,0.05,VWS V14.01,2013-01-30 06:33:00,
2013-01-29 22:38:00,44.8,37.7,30.19,NE,51,3.0,6.0,76,0.01,,---,0.05,VWS V14.01,2013-01-30 06:38:00,
2013-01-29 22:43:00,44.9,37.8,30.19,NE,55,4.0,7.0,76,0.01,,---,0.05,VWS V14.01,2013-01-30 06:43:00,
2013-01-29 22:45:00,44.9,37.8,30.20,NE,52,4.0,7.0,76,0.01,,---,0.05,VWS V14.01,2013-01-30 06:45:00,
2013-01-29 22:48:00,44.9,37.8,30.20,NE,49,5.0,7.0,76,0.01,,---,0.05,VWS V14.01,2013-01-30 06:48:00,
2013-01-29 22:53:00,44.9,38.1,30.20,NE,50,3.0,7.0,77,0.01,,---,0.05,VWS V14.01,2013-01-30 06:53:00,
2013-01-29 22:58:00,44.9,38.1,30.20,NE,49,2.0,7.0,77,0.01,,---,0.05,VWS V14.01,2013-01-30 06:58:00,
2013-01-29 23:00:00,44.9,37.8,30.20,NE,50,0.0,7.0,76,0.01,,---,0.05,VWS V14.01,2013-01-30 07:00:00,
2013-01-29 23:03:00,44.9,37.8,30.20,NE,50,2.0,3.0,76,0.01,,---,0.05,VWS V14.01,2013-01-30 07:03:00,
2013-01-29 23:08:00,44.9,38.1,30.20,NE,49,4.0,4.0,77,0.01,,---,0.05,VWS V14.01,2013-01-30 07:08:00,
2013-01-29 23:13:00,44.8,38.0,30.20,NE,56,4.0,4.0,77,0.01,,---,0.05,VWS V14.01,2013-01-30 07:13:00,
2013-01-29 23:15:00,44.7,37.9,30.20,NE,56,3.0,4.0,77,0.01,,---,0.05,VWS V14.01,2013-01-30 07:15:00,
2013-01-29 23:18:00,44.7,37.9,30.20,NE,55,0.0,4.0,77,0.01,,---,0.05,VWS V14.01,2013-01-30 07:18:00,
2013-01-29 23:23:00,44.6,37.8,30.20,NE,55,4.0,5.0,77,0.01,,---,0.05,VWS V14.01,2013-01-30 07:23:00,
2013-01-29 23:28:00,44.5,37.8,30.21,NE,55,3.0,5.0,77,0.01,,---,0.05,VWS V14.01,2013-01-30 07:28:00,
2013-01-29 23:30:00,44.4,37.7,30.20,NE,55,0.0,5.0,77,0.01,,---,0.05,VWS V14.01,2013-01-30 07:30:00,
2013-01-29 23:33:00,44.3,37.6,30.20,NE,55,0.0,3.0,77,0.00,,---,0.05,VWS V14.01,2013-01-30 07:33:00,
2013-01-29 23:38:00,44.2,37.5,30.21,NE,55,1.0,3.0,77,0.00,,---,0.05,VWS V14.01,2013-01-30 07:38:00,
2013-01-29 23:43:00,44.1,37.7,30.21,NE,55,0.0,4.0,78,0.00,,---,0.05,VWS V14.01,2013-01-30 07:43:00,
2013-01-29 23:45:00,44.0,37.6,30.21,NE,55,2.0,4.0,78,0.00,,---,0.05,VWS V14.01,2013-01-30 07:45:00,
2013-01-29 23:48:00,44.0,37.6,30.21,NE,55,3.0,5.0,78,0.00,,---,0.05,VWS V14.01,2013-01-30 07:48:00,
2013-01-29 23:53:00,43.8,37.4,30.21,NE,56,3.0,5.0,78,0.00,,---,0.05,VWS V14.01,2013-01-30 07:53:00,
2013-01-29 23:58:00,43.8,37.4,30.21,NE,55,0.0,5.0,78,0.00,,---,0.05,VWS V14.01,2013-01-30 07:58:00,